This is the latest recevied weather packets stored in our database for station/object KA3RQR. If no packets are shown the sender has not sent any weather packets the latest 10 day(s).
| Time | Temp. | Humidity | Pressure | Rain* | Wind** | Luminosity | Snow |
|---|---|---|---|---|---|---|---|
| 1777884687 | 10° C | 64% | 1015.5 hPa | 0 mm | - | 0 W/m² | - |
| 1777884384 | 10° C | 64% | 1015.4 hPa | 0 mm | - | 0 W/m² | - |
| 1777884080 | 10° C | 64% | 1015.4 hPa | 0 mm | - | 0 W/m² | - |
| 1777883778 | 10° C | 64% | 1015.5 hPa | 0 mm | - | 0 W/m² | - |
| 1777883475 | 10° C | 65% | 1015.3 hPa | 0 mm | - | 0 W/m² | - |
| 1777883171 | 10° C | 64% | 1015.4 hPa | 0 mm | - | 0 W/m² | - |
| 1777882867 | 10° C | 62% | 1015.4 hPa | 0 mm | - | 0 W/m² | - |
| 1777882564 | 10° C | 63% | 1015.3 hPa | 0 mm | - | 0 W/m² | - |
| 1777882260 | 10° C | 64% | 1015.1 hPa | 0 mm | - | 0 W/m² | - |
| 1777881957 | 10° C | 65% | 1015.2 hPa | 0 mm | - | 0 W/m² | - |
| 1777881653 | 10° C | 66% | 1015.5 hPa | 0 mm | - | 0 W/m² | - |
| 1777881350 | 9.44° C | 69% | 1015.5 hPa | 0 mm | - | 0 W/m² | - |
| 1777881048 | 9.44° C | 68% | 1015.6 hPa | 0 mm | - | 0 W/m² | - |
| 1777880443 | 9.44° C | 66% | 1015.4 hPa | 0 mm | - | 0 W/m² | - |
| 1777880141 | 9.44° C | 67% | 1015.6 hPa | 0 mm | - | 0 W/m² | - |
| 1777879839 | 9.44° C | 69% | 1015.5 hPa | 0 mm | - | 0 W/m² | - |
| 1777879537 | 8.89° C | 69% | 1015.3 hPa | 0 mm | - | 0 W/m² | - |
| 1777879233 | 8.89° C | 70% | 1015.6 hPa | 0 mm | - | 0 W/m² | - |
| 1777878931 | 8.89° C | 70% | 1015.3 hPa | 0 mm | - | 0 W/m² | - |
| 1777878627 | 8.89° C | 69% | 1015.4 hPa | 0 mm | - | 0 W/m² | - |
| 1777878325 | 8.89° C | 69% | 1015.2 hPa | 0 mm | - | 0 W/m² | - |
| 1777878021 | 8.89° C | 69% | 1015.4 hPa | 0 mm | - | 0 W/m² | - |
| 1777877717 | 8.89° C | 69% | 1015.6 hPa | 0 mm | - | 0 W/m² | - |
| 1777877414 | 8.89° C | 69% | 1015.5 hPa | 0 mm | - | 0 W/m² | - |
| 1777877111 | 8.89° C | 70% | 1015.7 hPa | 0 mm | - | 0 W/m² | - |
* Rain latest hour (hover to see other rain measurements)
** Current wind speed in m/s (hover to see current wind gust speed)